Kezdőlap
METAR-TAF:

METAR-TAF

Repülőterek :

Whiteside County Airport (Jos. H. Bittorf Field)

Sterling-Rock Falls, Illinois, Amerikai Egyesült Államok

földrajzi szélesség: 41-45N, földrajzi hosszúság: 089-40W, magasság: 197 m

Jelenlegi meteorológiai megfigyelések

A jelentés 30 perccel ezelõtt készült, 09:56 UTC
Szélcsend
Hőmérséklet 1°C
Páratartalom 100%
Légköri nyomás 1017 hPa
Látótávolság: 16.1 km
Derült ég

METAR: KSQI 230956Z 00000KT 10SM CLR 01/01 A3003 RMK AO2 SLP037 T00110006 FZRANO

Idő: 05:26 (10:26 UTC)


TAF: hiányzik

Meteorológiai megfigyelések és előrejelzések több, mint 4000 repülőtéren (METAR és TAF jelentéseket).

A térképen piros és sárga pontok jelzik az elérhető meteorológiai állomásokat.

Mozgassa az egeret a pont fölött, hogy megjelenjen az állomás neve.

Azután kattintson az időjárási megfigyelések és előrejelzések megtekintéséhez.

A térkép megváltoztatása: kattintson a fekete keresztel jelölt zöld gombra ráközelítéshez, a vonallal jelölt zöld gombra távolításhoz, vagy a zöld nyilakra a szomszédos térképek eléréséhez.


METAR-TAF: